Time,TemperatureF,DewpointF,PressureIn,WindDirection,WindDirectionDegrees,WindSpeedMPH,WindSpeedGustMPH,Humidity,HourlyPrecipIn,Conditions,Clouds,dailyrainin,SoftwareType,DateUTC
2013-04-27 00:02:00,51.0,45.0,30.30,South,180,8.0,8.0,79,0.00,,,0.00,,2013-04-27 05:02:00,
2013-04-27 00:12:00,51.0,45.0,30.30,South,180,8.0,8.0,79,0.00,,,0.00,,2013-04-27 05:12:00,
2013-04-27 00:22:00,51.0,45.0,30.30,South,180,8.0,8.0,79,0.00,,,0.00,,2013-04-27 05:22:00,
2013-04-27 00:32:00,50.0,44.0,30.30,SSE,160,5.0,8.0,79,0.00,,,0.00,,2013-04-27 05:32:00,
2013-04-27 00:42:00,50.0,44.0,30.30,SSE,160,5.0,8.0,79,0.00,,,0.00,,2013-04-27 05:42:00,
2013-04-27 00:52:00,50.0,44.0,30.30,SSE,160,5.0,5.0,79,0.00,,,0.00,,2013-04-27 05:52:00,
2013-04-27 01:01:00,50.0,44.0,30.30,SSE,160,5.0,5.0,79,0.00,,,0.00,,2013-04-27 06:01:00,
2013-04-27 01:12:00,50.0,44.0,30.30,SSE,160,5.0,5.0,79,0.00,,,0.00,,2013-04-27 06:12:00,
2013-04-27 01:22:00,50.0,44.0,30.30,SSE,160,5.0,5.0,79,0.00,,,0.00,,2013-04-27 06:22:00,
2013-04-27 01:32:00,49.0,44.0,30.30,SSE,160,0.0,5.0,83,0.00,,,0.00,,2013-04-27 06:32:00,
2013-04-27 01:41:00,49.0,44.0,30.30,SSE,160,0.0,5.0,83,0.00,,,0.00,,2013-04-27 06:41:00,
2013-04-27 01:52:00,49.0,44.0,30.30,SSE,160,0.0,0.0,83,0.00,,,0.00,,2013-04-27 06:52:00,
2013-04-27 02:01:00,49.0,44.0,30.30,SSE,160,0.0,0.0,83,0.00,,,0.00,,2013-04-27 07:01:00,
2013-04-27 02:11:00,49.0,44.0,30.30,SSE,160,0.0,0.0,83,0.00,,,0.00,,2013-04-27 07:11:00,
2013-04-27 02:21:00,49.0,44.0,30.30,SSE,160,0.0,0.0,83,0.00,,,0.00,,2013-04-27 07:21:00,
2013-04-27 02:32:00,49.0,44.0,30.28,SSE,150,3.0,3.0,83,0.00,,,0.00,,2013-04-27 07:32:00,
2013-04-27 02:42:00,49.0,44.0,30.28,SSE,150,3.0,3.0,83,0.00,,,0.00,,2013-04-27 07:42:00,
2013-04-27 02:52:00,49.0,44.0,30.28,SSE,150,3.0,3.0,83,0.00,,,0.00,,2013-04-27 07:52:00,
2013-04-27 03:01:00,49.0,44.0,30.28,SSE,150,3.0,3.0,83,0.00,,,0.00,,2013-04-27 08:01:00,
2013-04-27 03:11:00,49.0,44.0,30.28,SSE,150,3.0,3.0,83,0.00,,,0.00,,2013-04-27 08:11:00,
2013-04-27 03:21:00,49.0,44.0,30.28,SSE,150,3.0,3.0,83,0.00,,,0.00,,2013-04-27 08:21:00,
2013-04-27 03:33:00,50.0,45.0,30.26,SSE,150,0.0,3.0,82,0.00,,,0.00,,2013-04-27 08:33:00,
2013-04-27 03:41:00,50.0,45.0,30.26,SSE,150,0.0,3.0,82,0.00,,,0.00,,2013-04-27 08:41:00,
2013-04-27 03:52:00,50.0,45.0,30.26,SSE,150,0.0,0.0,82,0.00,,,0.00,,2013-04-27 08:52:00,
2013-04-27 04:01:00,50.0,45.0,30.26,SSE,150,0.0,0.0,82,0.00,,,0.00,,2013-04-27 09:01:00,
2013-04-27 04:11:00,50.0,45.0,30.26,SSE,150,0.0,0.0,82,0.00,,,0.00,,2013-04-27 09:11:00,
2013-04-27 04:21:00,50.0,45.0,30.26,SSE,150,0.0,0.0,82,0.00,,,0.00,,2013-04-27 09:21:00,
2013-04-27 04:33:00,48.0,44.0,30.26,South,170,5.0,5.0,86,0.00,,,0.00,,2013-04-27 09:33:00,
2013-04-27 04:42:00,48.0,44.0,30.26,South,170,5.0,5.0,86,0.00,,,0.00,,2013-04-27 09:42:00,
2013-04-27 04:53:00,48.0,44.0,30.26,South,170,5.0,5.0,86,0.00,,,0.00,,2013-04-27 09:53:00,
2013-04-27 05:02:00,48.0,44.0,30.26,South,170,5.0,5.0,86,0.00,,,0.00,,2013-04-27 10:02:00,
2013-04-27 05:12:00,48.0,44.0,30.26,South,170,5.0,5.0,86,0.00,,,0.00,,2013-04-27 10:12:00,
2013-04-27 05:22:00,48.0,44.0,30.26,South,170,5.0,5.0,86,0.00,,,0.00,,2013-04-27 10:22:00,
2013-04-27 05:32:00,47.0,43.0,30.24,South,170,0.0,5.0,86,0.00,,,0.00,,2013-04-27 10:32:00,
2013-04-27 05:42:00,47.0,43.0,30.24,South,170,0.0,5.0,86,0.00,,,0.00,,2013-04-27 10:42:00,
2013-04-27 05:52:00,47.0,43.0,30.24,South,170,0.0,0.0,86,0.00,,,0.00,,2013-04-27 10:52:00,
2013-04-27 06:02:00,47.0,43.0,30.24,South,170,0.0,0.0,86,0.00,,,0.00,,2013-04-27 11:02:00,
2013-04-27 06:11:00,47.0,43.0,30.24,South,170,0.0,0.0,86,0.00,,,0.00,,2013-04-27 11:11:00,
2013-04-27 06:22:00,47.0,43.0,30.24,South,170,0.0,0.0,86,0.00,,,0.00,,2013-04-27 11:22:00,
2013-04-27 06:31:00,46.0,43.0,30.24,South,170,0.0,0.0,88,0.00,,,0.00,,2013-04-27 11:31:00,
2013-04-27 06:41:00,46.0,43.0,30.24,South,170,0.0,0.0,88,0.00,,,0.00,,2013-04-27 11:41:00,
2013-04-27 06:52:00,46.0,43.0,30.24,South,170,0.0,0.0,88,0.00,,,0.00,,2013-04-27 11:52:00,
2013-04-27 07:01:00,46.0,43.0,30.24,South,170,0.0,0.0,88,0.00,,,0.00,,2013-04-27 12:01:00,
2013-04-27 07:11:00,46.0,43.0,30.24,South,170,0.0,0.0,88,0.00,,,0.00,,2013-04-27 12:11:00,
2013-04-27 07:22:00,46.0,43.0,30.24,South,170,0.0,0.0,88,0.00,,,0.00,,2013-04-27 12:22:00,
2013-04-27 07:32:00,46.0,44.0,30.23,South,170,0.0,0.0,92,0.00,,,0.00,,2013-04-27 12:32:00,
2013-04-27 07:42:00,46.0,44.0,30.23,South,170,0.0,0.0,92,0.00,,,0.00,,2013-04-27 12:42:00,
2013-04-27 07:52:00,46.0,44.0,30.23,South,170,0.0,0.0,92,0.00,,,0.00,,2013-04-27 12:52:00,
2013-04-27 08:02:00,46.0,44.0,30.23,South,170,0.0,0.0,92,0.00,,,0.00,,2013-04-27 13:02:00,
2013-04-27 08:11:00,46.0,44.0,30.23,South,170,0.0,0.0,92,0.00,,,0.00,,2013-04-27 13:11:00,
2013-04-27 08:21:00,46.0,44.0,30.23,South,170,0.0,0.0,92,0.00,,,0.00,,2013-04-27 13:21:00,
2013-04-27 08:32:00,51.0,46.0,30.23,ENE,60,5.0,5.0,82,0.00,,,0.00,,2013-04-27 13:32:00,
2013-04-27 08:41:00,51.0,46.0,30.23,ENE,60,5.0,5.0,82,0.00,,,0.00,,2013-04-27 13:41:00,
2013-04-27 08:52:00,51.0,46.0,30.23,ENE,60,5.0,5.0,82,0.00,,,0.00,,2013-04-27 13:52:00,
2013-04-27 09:02:00,51.0,46.0,30.23,ENE,60,5.0,5.0,82,0.00,,,0.00,,2013-04-27 14:02:00,
2013-04-27 09:11:00,51.0,46.0,30.23,ENE,60,5.0,5.0,82,0.00,,,0.00,,2013-04-27 14:11:00,
2013-04-27 09:21:00,51.0,46.0,30.23,ENE,60,5.0,5.0,82,0.00,,,0.00,,2013-04-27 14:21:00,
2013-04-27 09:31:00,54.0,46.0,30.21,East,90,7.0,7.0,74,0.00,,,0.00,,2013-04-27 14:31:00,
2013-04-27 09:41:00,54.0,46.0,30.21,East,90,7.0,7.0,74,0.00,,,0.00,,2013-04-27 14:41:00,
2013-04-27 09:52:00,54.0,46.0,30.21,East,90,7.0,7.0,74,0.00,,,0.00,,2013-04-27 14:52:00,
2013-04-27 10:01:00,54.0,46.0,30.21,East,90,7.0,7.0,74,0.00,,,0.00,,2013-04-27 15:01:00,
2013-04-27 10:11:00,54.0,46.0,30.21,East,90,7.0,7.0,74,0.00,,,0.00,,2013-04-27 15:11:00,
2013-04-27 10:22:00,54.0,46.0,30.21,East,90,7.0,7.0,74,0.00,,,0.00,,2013-04-27 15:22:00,
2013-04-27 10:33:00,57.0,46.0,30.20,ESE,120,7.0,7.0,66,0.00,,,0.00,,2013-04-27 15:33:00,
2013-04-27 10:42:00,57.0,46.0,30.20,ESE,120,7.0,7.0,66,0.00,,,0.00,,2013-04-27 15:42:00,
2013-04-27 10:53:00,57.0,46.0,30.20,ESE,120,7.0,7.0,66,0.00,,,0.00,,2013-04-27 15:53:00,
2013-04-27 11:03:00,57.0,46.0,30.20,ESE,120,7.0,7.0,66,0.00,,,0.00,,2013-04-27 16:03:00,
2013-04-27 11:13:00,57.0,46.0,30.20,ESE,120,7.0,7.0,66,0.00,,,0.00,,2013-04-27 16:13:00,
2013-04-27 11:22:00,57.0,46.0,30.20,ESE,120,7.0,7.0,66,0.00,,,0.00,,2013-04-27 16:22:00,
2013-04-27 11:32:00,60.0,46.0,30.20,SE,140,14.0,14.0,59,0.00,,,0.00,,2013-04-27 16:32:00,
2013-04-27 11:42:00,60.0,46.0,30.20,SE,140,14.0,14.0,59,0.00,,,0.00,,2013-04-27 16:42:00,
2013-04-27 11:53:00,60.0,46.0,30.20,SE,140,14.0,14.0,59,0.00,,,0.00,,2013-04-27 16:53:00,
2013-04-27 12:02:00,60.0,46.0,30.20,SE,140,14.0,14.0,59,0.00,,,0.00,,2013-04-27 17:02:00,
2013-04-27 12:12:00,60.0,46.0,30.20,SE,140,14.0,14.0,59,0.00,,,0.00,,2013-04-27 17:12:00,
2013-04-27 12:22:00,60.0,46.0,30.20,SE,140,14.0,14.0,59,0.00,,,0.00,,2013-04-27 17:22:00,
2013-04-27 12:32:00,62.0,45.0,30.18,SE,140,9.0,14.0,53,0.00,,,0.00,,2013-04-27 17:32:00,
2013-04-27 12:42:00,62.0,45.0,30.18,SE,140,9.0,14.0,53,0.00,,,0.00,,2013-04-27 17:42:00,
2013-04-27 12:53:00,62.0,45.0,30.18,SE,140,9.0,9.0,53,0.00,,,0.00,,2013-04-27 17:53:00,
2013-04-27 13:02:00,62.0,45.0,30.18,SE,140,9.0,9.0,53,0.00,,,0.00,,2013-04-27 18:02:00,
2013-04-27 13:12:00,62.0,45.0,30.18,SE,140,9.0,9.0,53,0.00,,,0.00,,2013-04-27 18:12:00,
2013-04-27 13:22:00,62.0,45.0,30.18,SE,140,9.0,9.0,53,0.00,,,0.00,,2013-04-27 18:22:00,
2013-04-27 13:32:00,62.0,43.0,30.15,SE,140,7.0,9.0,49,0.00,,,0.00,,2013-04-27 18:32:00,
2013-04-27 13:41:00,62.0,43.0,30.15,SE,140,7.0,9.0,49,0.00,,,0.00,,2013-04-27 18:41:00,
2013-04-27 13:52:00,62.0,43.0,30.15,SE,140,7.0,7.0,49,0.00,,,0.00,,2013-04-27 18:52:00,
2013-04-27 14:02:00,62.0,43.0,30.15,SE,140,7.0,7.0,49,0.00,,,0.00,,2013-04-27 19:02:00,
2013-04-27 14:11:00,62.0,43.0,30.15,SE,140,7.0,7.0,49,0.00,,,0.00,,2013-04-27 19:11:00,
2013-04-27 14:21:00,62.0,43.0,30.15,SE,140,7.0,7.0,49,0.00,,,0.00,,2013-04-27 19:21:00,
2013-04-27 14:32:00,61.0,41.0,30.13,SE,130,10.0,10.0,47,0.00,,,0.00,,2013-04-27 19:32:00,
2013-04-27 14:42:00,61.0,41.0,30.13,SE,130,10.0,10.0,47,0.00,,,0.00,,2013-04-27 19:42:00,
2013-04-27 14:53:00,61.0,41.0,30.13,SE,130,10.0,10.0,47,0.00,,,0.00,,2013-04-27 19:53:00,
2013-04-27 15:02:00,61.0,41.0,30.13,SE,130,10.0,10.0,47,0.00,,,0.00,,2013-04-27 20:02:00,
2013-04-27 15:11:00,61.0,41.0,30.13,SE,130,10.0,10.0,47,0.00,,,0.00,,2013-04-27 20:11:00,
2013-04-27 15:21:00,61.0,41.0,30.13,SE,130,10.0,10.0,47,0.00,,,0.00,,2013-04-27 20:21:00,
2013-04-27 15:32:00,62.0,42.0,30.10,ESE,120,13.0,21.0,47,0.00,,,0.00,,2013-04-27 20:32:00,
2013-04-27 15:42:00,62.0,42.0,30.10,ESE,120,13.0,21.0,47,0.00,,,0.00,,2013-04-27 20:42:00,
2013-04-27 15:52:00,62.0,42.0,30.10,ESE,120,13.0,21.0,47,0.00,,,0.00,,2013-04-27 20:52:00,
2013-04-27 16:02:00,62.0,42.0,30.10,ESE,120,13.0,21.0,47,0.00,,,0.00,,2013-04-27 21:02:00,
2013-04-27 16:11:00,62.0,42.0,30.10,ESE,120,13.0,21.0,47,0.00,,,0.00,,2013-04-27 21:11:00,
2013-04-27 16:21:00,62.0,42.0,30.10,ESE,120,13.0,21.0,47,0.00,,,0.00,,2013-04-27 21:21:00,
2013-04-27 16:33:00,61.0,44.0,30.08,SE,140,6.0,21.0,53,0.00,,,0.00,,2013-04-27 21:33:00,
2013-04-27 16:42:00,61.0,44.0,30.08,SE,140,6.0,21.0,53,0.00,,,0.00,,2013-04-27 21:42:00,
2013-04-27 16:53:00,61.0,44.0,30.08,SE,140,6.0,6.0,53,0.00,,,0.00,,2013-04-27 21:53:00,
2013-04-27 17:02:00,61.0,44.0,30.08,SE,140,6.0,6.0,53,0.00,,,0.00,,2013-04-27 22:02:00,
2013-04-27 17:12:00,61.0,44.0,30.08,SE,140,6.0,6.0,53,0.00,,,0.00,,2013-04-27 22:12:00,
2013-04-27 17:22:00,61.0,44.0,30.08,SE,140,6.0,6.0,53,0.00,,,0.00,,2013-04-27 22:22:00,
2013-04-27 17:32:00,58.0,49.0,30.07,South,190,8.0,8.0,71,0.00,,,0.00,,2013-04-27 22:32:00,
2013-04-27 17:42:00,58.0,49.0,30.07,South,190,8.0,8.0,71,0.00,,,0.00,,2013-04-27 22:42:00,
2013-04-27 17:52:00,58.0,49.0,30.07,South,190,8.0,8.0,71,0.00,,,0.00,,2013-04-27 22:52:00,
2013-04-27 18:02:00,58.0,49.0,30.07,South,190,8.0,8.0,71,0.00,,,0.00,,2013-04-27 23:02:00,
2013-04-27 18:11:00,58.0,49.0,30.07,South,190,8.0,8.0,71,0.00,,,0.00,,2013-04-27 23:11:00,
2013-04-27 18:22:00,58.0,49.0,30.07,South,190,8.0,8.0,71,0.00,,,0.00,,2013-04-27 23:22:00,
2013-04-27 18:32:00,56.0,49.0,30.07,SSE,150,7.0,8.0,77,0.00,,,0.00,,2013-04-27 23:32:00,
2013-04-27 18:42:00,56.0,49.0,30.07,SSE,150,7.0,8.0,77,0.00,,,0.00,,2013-04-27 23:42:00,
2013-04-27 18:52:00,56.0,49.0,30.07,SSE,150,7.0,7.0,77,0.00,,,0.00,,2013-04-27 23:52:00,
2013-04-27 19:01:00,56.0,49.0,30.07,SSE,150,7.0,7.0,77,0.00,,,0.00,,2013-04-28 00:01:00,
2013-04-27 19:11:00,56.0,49.0,30.07,SSE,150,7.0,7.0,77,0.00,,,0.00,,2013-04-28 00:11:00,
2013-04-27 19:21:00,56.0,49.0,30.07,SSE,150,7.0,7.0,77,0.00,,,0.00,,2013-04-28 00:21:00,
2013-04-27 19:31:00,55.0,50.0,30.04,East,100,6.0,7.0,83,0.00,,,0.00,,2013-04-28 00:31:00,
2013-04-27 19:42:00,55.0,50.0,30.04,East,100,6.0,7.0,83,0.00,,,0.00,,2013-04-28 00:42:00,
2013-04-27 19:52:00,54.0,51.0,30.04,ESE,120,6.0,6.0,89,0.00,,,0.00,,2013-04-28 00:52:00,
2013-04-27 20:01:00,54.0,51.0,30.04,ESE,120,6.0,6.0,89,0.00,,,0.00,,2013-04-28 01:01:00,
2013-04-27 20:11:00,54.0,51.0,30.04,ESE,120,6.0,6.0,89,0.00,,,0.00,,2013-04-28 01:11:00,
2013-04-27 20:21:00,54.0,51.0,30.04,ESE,120,6.0,6.0,89,0.00,,,0.00,,2013-04-28 01:21:00,
2013-04-27 20:31:00,53.0,50.0,30.02,ESE,120,5.0,6.0,89,0.02,,,0.02,,2013-04-28 01:31:00,
2013-04-27 20:42:00,53.0,50.0,30.02,ESE,120,5.0,6.0,89,0.02,,,0.02,,2013-04-28 01:42:00,
2013-04-27 20:52:00,53.0,50.0,30.02,ESE,120,5.0,5.0,89,0.02,,,0.02,,2013-04-28 01:52:00,
2013-04-27 21:01:00,53.0,50.0,30.02,ESE,120,5.0,5.0,89,0.02,,,0.02,,2013-04-28 02:01:00,
2013-04-27 21:12:00,53.0,50.0,30.02,ESE,120,5.0,5.0,89,0.02,,,0.02,,2013-04-28 02:12:00,
2013-04-27 21:22:00,53.0,50.0,30.02,ESE,120,5.0,5.0,89,0.04,,,0.04,,2013-04-28 02:22:00,
2013-04-27 21:32:00,52.0,51.0,30.02,ESE,110,3.0,5.0,96,0.02,,,0.04,,2013-04-28 02:32:00,
2013-04-27 21:42:00,52.0,51.0,30.02,ESE,110,3.0,5.0,96,0.02,,,0.04,,2013-04-28 02:42:00,
2013-04-27 21:52:00,52.0,51.0,30.02,ESE,110,3.0,3.0,96,0.02,,,0.04,,2013-04-28 02:52:00,
2013-04-27 22:01:00,53.0,51.0,30.02,East,90,3.0,3.0,92,0.02,,,0.04,,2013-04-28 03:01:00,
2013-04-27 22:11:00,53.0,51.0,30.02,East,90,3.0,3.0,92,0.02,,,0.04,,2013-04-28 03:11:00,
2013-04-27 22:21:00,53.0,51.0,30.02,East,90,3.0,3.0,92,0.01,,,0.05,,2013-04-28 03:21:00,
2013-04-27 22:32:00,53.0,51.0,30.01,East,90,0.0,3.0,92,0.01,,,0.05,,2013-04-28 03:32:00,
2013-04-27 22:42:00,53.0,51.0,30.01,East,90,0.0,3.0,92,0.01,,,0.05,,2013-04-28 03:42:00,
2013-04-27 22:53:00,53.0,51.0,30.01,ENE,70,3.0,3.0,92,0.01,,,0.05,,2013-04-28 03:53:00,
2013-04-27 23:02:00,53.0,51.0,30.01,ENE,70,3.0,3.0,92,0.01,,,0.05,,2013-04-28 04:02:00,
2013-04-27 23:13:00,53.0,51.0,30.01,ENE,70,3.0,3.0,92,0.01,,,0.05,,2013-04-28 04:13:00,
2013-04-27 23:22:00,53.0,51.0,30.01,ENE,70,3.0,3.0,92,0.00,,,0.05,,2013-04-28 04:22:00,
2013-04-27 23:32:00,53.0,51.0,30.00,East,90,5.0,5.0,92,0.00,,,0.05,,2013-04-28 04:32:00,
2013-04-27 23:42:00,53.0,51.0,30.00,East,90,5.0,5.0,92,0.00,,,0.05,,2013-04-28 04:42:00,
2013-04-27 23:53:00,53.0,51.0,30.00,East,90,5.0,5.0,92,0.00,,,0.05,,2013-04-28 04:53:00,